[Date Prev][Date Next][Thread Prev][Thread Next] - [Date Index][Thread Index][Author Index]
2 Line ISS Keps 11-11
- Subject: [sarex] 2 Line ISS Keps 11-11
- From: "Dave Larsen Ph.D." <doc@xxxxxxxxxxx>
- Date: Mon, 11 Nov 2002 02:56:03 -0800
ISS
1 25544U 98067A 02315.19961493 .00138753 00000-0 17395-2 0 3609
2 25544 51.6408 34.8349 0014102 126.4022 255.4556 15.58668616226905
----
Via the sarex mailing list at AMSAT.ORG courtesy of AMSAT-NA.
To unsubscribe, send "unsubscribe sarex" to Majordomo@amsat.org
AMSAT Home